KQA700 HKKI-HKMO

Flight info

Callsign KQA700
Flight time 1h 1m
Altitude 35000
Route IBSUL1A IBSUL DCT NAKAT DCT NAVEX DCT UVOVA Q135 NEREV NEREV3A
Aircraft B738/M-L/LB1

Departure

Time 2026-04-24 19:06
Airport Kisumu International Airport (HKKI)

Arrival

Time 2026-04-24 20:07
Airport Moi International Airport (HKMO)
Time Latitude Longitude Altitude Speed Heading
2026-04-24 18:54 -0.08328 34.72935 3804 ft 0 kts 64°
2026-04-24 18:59 -0.08324 34.72942 3804 ft 3 kts 64°
2026-04-24 18:59 -0.08312 34.72967 3804 ft 6 kts 65°
2026-04-24 19:00 -0.08324 34.72994 3804 ft 4 kts 146°
2026-04-24 19:00 -0.08346 34.72998 3804 ft 4 kts 210°
2026-04-24 19:00 -0.08375 34.72956 3804 ft 11 kts 242°
2026-04-24 19:00 -0.08420 34.72873 3804 ft 16 kts 242°
2026-04-24 19:01 -0.08482 34.72760 3804 ft 21 kts 242°
2026-04-24 19:01 -0.08553 34.72628 3804 ft 22 kts 242°
2026-04-24 19:01 -0.08623 34.72497 3804 ft 21 kts 242°
2026-04-24 19:01 -0.08691 34.72371 3804 ft 21 kts 242°
2026-04-24 19:02 -0.08737 34.72287 3804 ft 20 kts 241°
2026-04-24 19:02 -0.08825 34.72125 3804 ft 20 kts 242°
2026-04-24 19:02 -0.08890 34.72005 3804 ft 20 kts 242°
2026-04-24 19:02 -0.08943 34.71906 3804 ft 14 kts 242°
2026-04-24 19:03 -0.08994 34.71865 3804 ft 10 kts 165°
2026-04-24 19:03 -0.09079 34.71910 3804 ft 14 kts 149°
2026-04-24 19:03 -0.09136 34.71878 3804 ft 13 kts 242°
2026-04-24 19:03 -0.09188 34.71781 3804 ft 19 kts 242°
2026-04-24 19:04 -0.09260 34.71648 3804 ft 24 kts 242°
2026-04-24 19:04 -0.09342 34.71494 3804 ft 24 kts 242°
2026-04-24 19:04 -0.09372 34.71390 3804 ft 14 kts 274°
2026-04-24 19:04 -0.09376 34.71314 3804 ft 7 kts 209°
2026-04-24 19:05 -0.09425 34.71332 3804 ft 7 kts 123°
2026-04-24 19:05 -0.09408 34.71374 3804 ft 9 kts 60°
2026-04-24 19:05 -0.09345 34.71490 3804 ft 39 kts 62°
2026-04-24 19:05 -0.09119 34.71912 3804 ft 98 kts 62°
2026-04-24 19:06 -0.08709 34.72674 3804 ft 149 kts 62°
2026-04-24 19:06 -0.08158 34.73693 4054 ft 173 kts 62°
2026-04-24 19:06 -0.07604 34.74786 4614 ft 185 kts 71°
2026-04-24 19:06 -0.07574 34.76085 5160 ft 193 kts 105°
2026-04-24 19:07 -0.08299 34.77276 5507 ft 216 kts 136°
2026-04-24 19:07 -0.09638 34.78090 5790 ft 239 kts 156°
2026-04-24 19:07 -0.10711 34.78473 5961 ft 256 kts 161°
2026-04-24 19:07 -0.13069 34.79257 6646 ft 277 kts 162°
2026-04-24 19:08 -0.14928 34.79868 7338 ft 283 kts 162°
2026-04-24 19:08 -0.16806 34.80485 8138 ft 285 kts 162°
2026-04-24 19:08 -0.18671 34.81184 8943 ft 288 kts 155°
2026-04-24 19:08 -0.20399 34.82210 9724 ft 290 kts 144°
2026-04-24 19:09 -0.21954 34.83481 10461 ft 294 kts 140°
2026-04-24 19:09 -0.23553 34.84842 11046 ft 304 kts 139°
2026-04-24 19:09 -0.25183 34.86249 11328 ft 324 kts 139°
2026-04-24 19:09 -0.26940 34.87766 11591 ft 342 kts 139°
2026-04-24 19:10 -0.28782 34.89358 11857 ft 359 kts 139°
2026-04-24 19:10 -0.30705 34.91020 12337 ft 368 kts 139°
2026-04-24 19:10 -0.32649 34.92700 12927 ft 373 kts 139°
2026-04-24 19:10 -0.34623 34.94406 13540 ft 376 kts 138°
2026-04-24 19:11 -0.36615 34.96127 14135 ft 380 kts 138°
2026-04-24 19:11 -0.38618 34.97858 14716 ft 384 kts 138°
2026-04-24 19:11 -0.40654 34.99618 15279 ft 388 kts 138°
2026-04-24 19:11 -0.42689 35.01376 15835 ft 391 kts 138°
2026-04-24 19:12 -0.44757 35.03164 16365 ft 395 kts 137°
2026-04-24 19:12 -0.46849 35.04973 16887 ft 398 kts 137°
2026-04-24 19:12 -0.48952 35.06790 17399 ft 401 kts 137°
2026-04-24 19:12 -0.51067 35.08619 17892 ft 404 kts 137°
2026-04-24 19:13 -0.52476 35.09837 18213 ft 407 kts 137°
2026-04-24 19:13 -0.55354 35.12325 18833 ft 411 kts 137°
2026-04-24 19:13 -0.57533 35.14207 19284 ft 414 kts 137°
2026-04-24 19:13 -0.59689 35.16072 19713 ft 417 kts 137°
2026-04-24 19:14 -0.61896 35.17980 20133 ft 420 kts 137°
2026-04-24 19:14 -0.64109 35.19893 20540 ft 423 kts 137°
2026-04-24 19:14 -0.66349 35.21829 20937 ft 426 kts 137°
2026-04-24 19:14 -0.68592 35.23769 21320 ft 429 kts 137°
2026-04-24 19:15 -0.70892 35.25757 21701 ft 431 kts 137°
2026-04-24 19:15 -0.73138 35.27699 22046 ft 434 kts 137°
2026-04-24 19:15 -0.75425 35.29677 22381 ft 437 kts 137°
2026-04-24 19:15 -0.77730 35.31671 22716 ft 439 kts 137°
2026-04-24 19:16 -0.82100 35.35957 23348 ft 442 kts 125°
2026-04-24 19:16 -0.83691 35.38585 23645 ft 442 kts 114°
2026-04-24 19:16 -0.84845 35.41403 23939 ft 443 kts 108°
2026-04-24 19:17 -0.85827 35.44356 24230 ft 445 kts 106°
2026-04-24 19:17 -0.86716 35.47333 24522 ft 447 kts 105°
2026-04-24 19:17 -0.87583 35.50310 24794 ft 449 kts 105°
2026-04-24 19:17 -0.88459 35.53315 25073 ft 450 kts 105°
2026-04-24 19:18 -0.89336 35.56320 25338 ft 452 kts 105°
2026-04-24 19:18 -0.90221 35.59346 25605 ft 454 kts 105°
2026-04-24 19:18 -0.91107 35.62380 25869 ft 456 kts 105°
2026-04-24 19:18 -0.91996 35.65425 26113 ft 458 kts 105°
2026-04-24 19:19 -0.92890 35.68484 26365 ft 459 kts 105°
2026-04-24 19:19 -0.93787 35.71550 26610 ft 461 kts 105°
2026-04-24 19:19 -0.94686 35.74623 26838 ft 463 kts 105°
2026-04-24 19:19 -0.95591 35.77717 27077 ft 464 kts 105°
2026-04-24 19:20 -0.96499 35.80821 27311 ft 466 kts 105°
2026-04-24 19:20 -0.97406 35.83925 27525 ft 467 kts 105°
2026-04-24 19:20 -0.98319 35.87044 27742 ft 469 kts 105°
2026-04-24 19:20 -0.99234 35.90174 27961 ft 470 kts 105°
2026-04-24 19:21 -1.00154 35.93318 28176 ft 472 kts 105°
2026-04-24 19:21 -1.01074 35.96464 28369 ft 473 kts 105°
2026-04-24 19:21 -1.01998 35.99623 28576 ft 474 kts 105°
2026-04-24 19:21 -1.02928 36.02806 28754 ft 476 kts 106°
2026-04-24 19:22 -1.03544 36.04911 28879 ft 477 kts 106°
2026-04-24 19:22 -1.04789 36.09167 29134 ft 479 kts 105°
2026-04-24 19:22 -1.05725 36.12368 29365 ft 479 kts 106°
2026-04-24 19:22 -1.06655 36.15551 29650 ft 478 kts 106°
2026-04-24 19:23 -1.07592 36.18757 29916 ft 478 kts 106°
2026-04-24 19:23 -1.08523 36.21941 30183 ft 477 kts 106°
2026-04-24 19:23 -1.09455 36.25129 30431 ft 477 kts 106°
2026-04-24 19:23 -1.10387 36.28318 30683 ft 478 kts 106°
2026-04-24 19:24 -1.11319 36.31505 30925 ft 478 kts 106°
2026-04-24 19:24 -1.12249 36.34688 31189 ft 478 kts 106°
2026-04-24 19:24 -1.13179 36.37868 31434 ft 478 kts 106°
2026-04-24 19:24 -1.14100 36.41020 31685 ft 478 kts 106°
2026-04-24 19:25 -1.15032 36.44210 31952 ft 478 kts 106°
2026-04-24 19:25 -1.15979 36.47448 32205 ft 478 kts 106°
2026-04-24 19:25 -1.16897 36.50592 32449 ft 478 kts 106°
2026-04-24 19:25 -1.17828 36.53776 32727 ft 478 kts 106°
2026-04-24 19:26 -1.18761 36.56969 32992 ft 478 kts 106°
2026-04-24 19:26 -1.19690 36.60152 33252 ft 478 kts 106°
2026-04-24 19:26 -1.20634 36.63380 33513 ft 478 kts 106°
2026-04-24 19:26 -1.21556 36.66535 33759 ft 478 kts 106°
2026-04-24 19:27 -1.22487 36.69724 34022 ft 478 kts 105°
2026-04-24 19:27 -1.23416 36.72903 34293 ft 478 kts 105°
2026-04-24 19:27 -1.24346 36.76087 34590 ft 477 kts 105°
2026-04-24 19:27 -1.25276 36.79273 34874 ft 476 kts 105°
2026-04-24 19:28 -1.26196 36.82424 35156 ft 475 kts 105°
2026-04-24 19:28 -1.27129 36.85619 35211 ft 478 kts 106°
2026-04-24 19:28 -1.28970 36.91783 35208 ft 477 kts 109°
2026-04-24 19:29 -1.31710 36.97781 35201 ft 473 kts 120°
2026-04-24 19:29 -1.33478 37.00571 35201 ft 474 kts 124°
2026-04-24 19:30 -1.37229 37.05985 35200 ft 474 kts 125°
2026-04-24 19:30 -1.40991 37.11405 35198 ft 474 kts 124°
2026-04-24 19:31 -1.44732 37.16818 35196 ft 473 kts 124°
2026-04-24 19:31 -1.48461 37.22223 35193 ft 473 kts 124°
2026-04-24 19:32 -1.51578 37.26743 35190 ft 473 kts 124°
2026-04-24 19:32 -1.55921 37.33044 35181 ft 473 kts 124°
2026-04-24 19:33 -1.59044 37.37577 35175 ft 473 kts 124°
2026-04-24 19:33 -1.62775 37.42991 35168 ft 473 kts 125°
2026-04-24 19:34 -1.66498 37.48398 35161 ft 473 kts 124°
2026-04-24 19:34 -1.70241 37.53835 35153 ft 473 kts 125°
2026-04-24 19:35 -1.73970 37.59252 35145 ft 473 kts 125°
2026-04-24 19:35 -1.77775 37.64446 35136 ft 472 kts 131°
2026-04-24 19:36 -1.82366 37.69211 35129 ft 472 kts 136°
2026-04-24 19:36 -1.87015 37.73828 35121 ft 471 kts 135°
2026-04-24 19:37 -1.91619 37.78409 35114 ft 471 kts 135°
2026-04-24 19:37 -1.96265 37.83037 35106 ft 471 kts 135°
2026-04-24 19:38 -2.00898 37.87656 35099 ft 471 kts 135°
2026-04-24 19:38 -2.05532 37.92275 35092 ft 471 kts 135°
2026-04-24 19:39 -2.10172 37.96902 35085 ft 471 kts 135°
2026-04-24 19:39 -2.14808 38.01527 35079 ft 471 kts 135°
2026-04-24 19:40 -2.19440 38.06147 35073 ft 471 kts 135°
2026-04-24 19:40 -2.24075 38.10773 35067 ft 471 kts 135°
2026-04-24 19:41 -2.28708 38.15396 35061 ft 471 kts 135°
2026-04-24 19:41 -2.33347 38.20027 34931 ft 473 kts 135°
2026-04-24 19:41 -2.35681 38.22355 34680 ft 472 kts 135°
2026-04-24 19:42 -2.37993 38.24663 34431 ft 472 kts 135°
2026-04-24 19:42 -2.40322 38.26988 34180 ft 471 kts 135°
2026-04-24 19:42 -2.42677 38.29339 33927 ft 472 kts 135°
2026-04-24 19:42 -2.44972 38.31631 33521 ft 472 kts 135°
2026-04-24 19:43 -2.47287 38.33941 32789 ft 471 kts 135°
2026-04-24 19:43 -2.49611 38.36262 32187 ft 469 kts 135°
2026-04-24 19:43 -2.51907 38.38554 31656 ft 466 kts 135°
2026-04-24 19:43 -2.54190 38.40834 31132 ft 462 kts 135°
2026-04-24 19:44 -2.56458 38.43099 30614 ft 458 kts 134°
2026-04-24 19:44 -2.58703 38.45341 30106 ft 455 kts 134°
2026-04-24 19:44 -2.60928 38.47563 29609 ft 451 kts 134°
2026-04-24 19:44 -2.63146 38.49779 29116 ft 448 kts 134°
2026-04-24 19:45 -2.65343 38.51973 28625 ft 444 kts 134°
2026-04-24 19:45 -2.67525 38.54152 28136 ft 441 kts 134°
2026-04-24 19:45 -2.69679 38.56304 27653 ft 438 kts 134°
2026-04-24 19:45 -2.71827 38.58450 27170 ft 435 kts 134°
2026-04-24 19:46 -2.73963 38.60584 26686 ft 431 kts 134°
2026-04-24 19:46 -2.76071 38.62690 26208 ft 428 kts 134°
2026-04-24 19:46 -2.78177 38.64793 25729 ft 425 kts 134°
2026-04-24 19:46 -2.80265 38.66881 25254 ft 422 kts 133°
2026-04-24 19:47 -2.82325 38.68939 24783 ft 419 kts 133°
2026-04-24 19:47 -2.84391 38.71004 24309 ft 416 kts 133°
2026-04-24 19:47 -2.86431 38.73042 23840 ft 414 kts 133°
2026-04-24 19:47 -2.88454 38.75064 23375 ft 411 kts 133°
2026-04-24 19:48 -2.90475 38.77085 22908 ft 408 kts 133°
2026-04-24 19:48 -2.92470 38.79079 22444 ft 405 kts 133°
2026-04-24 19:48 -2.96436 38.83044 21523 ft 400 kts 133°
2026-04-24 19:49 -3.00337 38.86944 20609 ft 395 kts 133°
2026-04-24 19:49 -3.04204 38.90810 19701 ft 389 kts 133°
2026-04-24 19:50 -3.09897 38.96502 18360 ft 382 kts 133°
2026-04-24 19:50 -3.11773 38.98379 17915 ft 380 kts 133°
2026-04-24 19:51 -3.15487 39.02096 17035 ft 375 kts 134°
2026-04-24 19:51 -3.17302 39.03912 16604 ft 373 kts 134°
2026-04-24 19:52 -3.20948 39.07560 15737 ft 369 kts 134°
2026-04-24 19:52 -3.22786 39.09400 15309 ft 367 kts 134°
2026-04-24 19:52 -3.24574 39.11164 14863 ft 365 kts 134°
2026-04-24 19:52 -3.26379 39.12937 14439 ft 363 kts 134°
2026-04-24 19:53 -3.28197 39.14687 14013 ft 362 kts 135°
2026-04-24 19:53 -3.30051 39.16428 13580 ft 360 kts 135°
2026-04-24 19:53 -3.33652 39.19876 12741 ft 355 kts 135°
2026-04-24 19:54 -3.35406 39.21551 12338 ft 353 kts 136°
2026-04-24 19:54 -3.37184 39.23252 11928 ft 351 kts 136°
2026-04-24 19:54 -3.38936 39.24940 11521 ft 349 kts 135°
2026-04-24 19:54 -3.40684 39.26612 11147 ft 347 kts 136°
2026-04-24 19:55 -3.41855 39.27732 11011 ft 341 kts 136°
2026-04-24 19:55 -3.44085 39.29867 10753 ft 331 kts 136°
2026-04-24 19:55 -3.45727 39.31443 10609 ft 321 kts 136°
2026-04-24 19:55 -3.47323 39.32975 10457 ft 313 kts 136°
2026-04-24 19:56 -3.48850 39.34439 10298 ft 305 kts 136°
2026-04-24 19:56 -3.50392 39.35917 10134 ft 298 kts 136°
2026-04-24 19:56 -3.51873 39.37337 10011 ft 290 kts 137°
2026-04-24 19:56 -3.53312 39.38716 9839 ft 285 kts 137°
2026-04-24 19:57 -3.54745 39.40089 9408 ft 288 kts 137°
2026-04-24 19:57 -3.56193 39.41477 9096 ft 285 kts 137°
2026-04-24 19:57 -3.57620 39.42844 8794 ft 281 kts 137°
2026-04-24 19:57 -3.59022 39.44188 8500 ft 276 kts 137°
2026-04-24 19:58 -3.60386 39.45497 8212 ft 270 kts 137°
2026-04-24 19:58 -3.61733 39.46788 7931 ft 265 kts 137°
2026-04-24 19:58 -3.63058 39.48059 7651 ft 262 kts 137°
2026-04-24 19:58 -3.64362 39.49311 7375 ft 262 kts 137°
2026-04-24 19:59 -3.65692 39.50588 7088 ft 263 kts 138°
2026-04-24 19:59 -3.67015 39.51856 6798 ft 264 kts 138°
2026-04-24 19:59 -3.68336 39.53124 6507 ft 264 kts 138°
2026-04-24 19:59 -3.69647 39.54382 6212 ft 263 kts 138°
2026-04-24 20:00 -3.70963 39.55645 5941 ft 257 kts 138°
2026-04-24 20:00 -3.72220 39.56852 5796 ft 247 kts 138°
2026-04-24 20:00 -3.73447 39.58028 5657 ft 236 kts 138°
2026-04-24 20:00 -3.74616 39.59144 5531 ft 229 kts 139°
2026-04-24 20:01 -3.75751 39.60227 5411 ft 223 kts 139°
2026-04-24 20:01 -3.76844 39.61269 5328 ft 212 kts 139°
2026-04-24 20:01 -3.77875 39.62261 5191 ft 200 kts 139°
2026-04-24 20:01 -3.78880 39.63235 4859 ft 198 kts 139°
2026-04-24 20:02 -3.79530 39.63865 4626 ft 198 kts 139°
2026-04-24 20:02 -3.80851 39.65148 4163 ft 197 kts 139°
2026-04-24 20:02 -3.81823 39.66096 3934 ft 191 kts 139°
2026-04-24 20:02 -3.82781 39.66940 3728 ft 177 kts 155°
2026-04-24 20:03 -3.83955 39.67195 3348 ft 173 kts 177°
2026-04-24 20:03 -3.85164 39.67220 2966 ft 175 kts 179°
2026-04-24 20:03 -3.86385 39.67238 2728 ft 178 kts 179°
2026-04-24 20:03 -3.87648 39.67262 2547 ft 184 kts 179°
2026-04-24 20:04 -3.88941 39.67280 2413 ft 186 kts 183°
2026-04-24 20:04 -3.90175 39.66910 2328 ft 187 kts 204°
2026-04-24 20:04 -3.91295 39.66281 2244 ft 181 kts 208°
2026-04-24 20:04 -3.92366 39.65657 2136 ft 174 kts 207°
2026-04-24 20:05 -3.93399 39.65070 1954 ft 170 kts 207°
2026-04-24 20:05 -3.94430 39.64491 1736 ft 170 kts 207°
2026-04-24 20:05 -3.95459 39.63914 1518 ft 166 kts 207°
2026-04-24 20:05 -3.96458 39.63356 1296 ft 162 kts 208°
2026-04-24 20:06 -3.97423 39.62816 1098 ft 157 kts 209°
2026-04-24 20:06 -3.98368 39.62288 875 ft 154 kts 209°
2026-04-24 20:06 -3.99291 39.61773 669 ft 151 kts 209°
2026-04-24 20:06 -4.00201 39.61260 481 ft 151 kts 208°
2026-04-24 20:07 -4.00811 39.60923 366 ft 152 kts 209°
2026-04-24 20:07 -4.02026 39.60242 204 ft 136 kts 208°
2026-04-24 20:07 -4.02670 39.59883 204 ft 75 kts 209°
2026-04-24 20:07 -4.03010 39.59694 204 ft 47 kts 209°
2026-04-24 20:08 -4.03258 39.59552 204 ft 24 kts 209°
2026-04-24 20:08 -4.03320 39.59530 204 ft 5 kts 136°
2026-04-24 20:08 -4.03326 39.59591 204 ft 11 kts 89°
2026-04-24 20:08 -4.03325 39.59654 204 ft 7 kts 89°
2026-04-24 20:09 -4.03325 39.59697 204 ft 6 kts 92°
2026-04-24 20:09 -4.03326 39.59758 204 ft 11 kts 90°
2026-04-24 20:09 -4.03325 39.59853 204 ft 16 kts 89°
2026-04-24 20:09 -4.03323 39.59959 204 ft 10 kts 89°
2026-04-24 20:10 -4.03301 39.60038 204 ft 13 kts 52°
2026-04-24 20:10 -4.03245 39.60083 204 ft 8 kts 30°
2026-04-24 20:10 -4.03193 39.60113 204 ft 9 kts 29°
2026-04-24 20:10 -4.03139 39.60143 204 ft 7 kts 28°
2026-04-24 20:11 -4.03116 39.60166 204 ft 5 kts 90°
2026-04-24 20:11 -4.03130 39.60196 204 ft 5 kts 118°
2026-04-24 20:11 -4.03143 39.60218 204 ft 5 kts 121°
2026-04-24 20:11 -4.03152 39.60235 204 ft 0 kts 118°